Location: Rounton
(54.4000°N, 1.3500°W)
Time: 22:06:57
(UTC+01:00)

deb Delta 126 - Pass Details

Date: 10 July 2022
Orbit: 1120 x 1970 km, 101.5° (Epoch: 17 August)

Event Time Altitude Azimuth Distance (km) Brightness Sun altitude
Rises 23:35:00 0° 27° (NNE) 5,153 ? -10.7°
Reaches altitude 10° 23:38:17 10° 19° (NNE) 4,239 ? -10.9°
Maximum altitude 23:47:22 36° 320° (NW) 2,799 ? -11.4°
Drops below altitude 10° 23:56:46 10° 260° (W) 4,384 ? -11.8°
Sets 00:00:14 0° 253° (WSW) 5,347 ? -12.0°
